FALCON HEAVY R/B (44187 NORAD) Tracking and Keplerian Element Data

This shows tracking and keplerian element data for the satellite.

Feedback or suggestion? Click here.




ElementValue
Catalog44187
NameFALCON HEAVY R/B
Epoch Orbit4
Epoch Day107.98484291
Epoch Year2019
RAAN12.1203
Inclination22.9427
Eccentricity0.869662
Argument of Perigee180.4956
Mean Anonmoly176.8576
Mean Motion0.74587816
Decay Rate5.602E-05
L11 44187U 19021B 19107.98484291 .00005602 00000-0 35372-1 0 9994
L22 44187 22.9427 12.1203 8696620 180.4956 176.8576 0.74587816 41



Live tracking and technical data element details for FALCON HEAVY R/B (NORAD 44187). FALCON HEAVY R/B can be tracked NOW for your location showing map with azimuth and elevation plus other details from your city location.







IsCatalogInMostPopularTable: catalog: 44187, numindb: 222
Update: records affected: 1



GetName: 44187 FALCON HEAVY R/B

Hit Count: updated at: Sun, 28 May 2023 07:41:04 GMT